DIWATA-2B

Last updated on Tue Aug 25 2026 00:03:14 GMT+0000 (Coordinated Universal Time)

1 43678U 18084H 26236.58576477 .00001133 00000+0 94640-4 0 9991 2 43678 98.1208 75.8042 0010473 304.8350 55.1887 15.00672225426479
UTC large
Height (km)
Speed (km/s)
/
Latitude / Longitude
Inclination (degrees)
Orbital Period (minutes)
Azimuth
Elevation
Range (km)
Doppler Factor

Next 0 passes for location: London (51.5072 / 0.1276)

No passes found over London.
DIWATA-2B